Location: Namasale
(1.5000°N, 32.6167°E)
Time: 01:38:15
(UTC+00:00)

Vanguard 2 Rocket - Pass Details

Date: 19 April 2021
Orbit: 553 x 3326 km, 32.9° (Epoch: 10 May)

Event Time Altitude Azimuth Distance (km) Brightness Sun altitude
Rises 15:54:10 0° 314° (NW) 7,213 12.6 -1.1°
Reaches altitude 10° 16:01:13 10° 327° (NNW) 5,928 11.8 -2.8°
Maximum altitude 16:13:38 23° 12° (NNE) 4,107 10.2 -5.8°
Drops below altitude 10° 16:22:36 10° 60° (ENE) 4,217 9.9 -8.0°
Enters shadow 16:25:20 - 71° (ENE) 4,599 10.0 -8.7°
